MAU209 FMEE-FIMP

Flight info

Callsign MAU209
Flight time 0h 40m
Altitude 13000
Route EPTEK2N EPTEK DCT ETKIS FFLAC1
Aircraft AT76/M-SDFGIRY/S

Departure

Time 2026-05-07 20:58
Airport Roland Garros Airport (FMEE)

Arrival

Time 2026-05-07 21:39
Airport Sir Seewoosagur Ramgoolam International Airport (FIMP)
Time Latitude Longitude Altitude Speed Heading
2026-05-07 20:24 -20.88968 55.50979 71 ft 0 kts 205°
2026-05-07 20:54 -20.88969 55.50979 98 ft 1 kts 196°
2026-05-07 20:54 -20.88978 55.50994 71 ft 2 kts 66°
2026-05-07 20:55 -20.88945 55.51003 68 ft 8 kts 19°
2026-05-07 20:55 -20.88904 55.51027 71 ft 4 kts 47°
2026-05-07 20:55 -20.88903 55.51051 71 ft 3 kts 109°
2026-05-07 20:55 -20.88924 55.51101 71 ft 7 kts 116°
2026-05-07 20:56 -20.88940 55.51134 71 ft 4 kts 118°
2026-05-07 20:56 -20.88925 55.51178 70 ft 5 kts
2026-05-07 20:56 -20.88909 55.51174 63 ft 0 kts 345°
2026-05-07 20:56 -20.88909 55.51175 64 ft 0 kts 345°
2026-05-07 20:57 -20.88875 55.51164 69 ft 19 kts 341°
2026-05-07 20:57 -20.88754 55.51125 58 ft 12 kts
2026-05-07 20:57 -20.88735 55.51146 56 ft 0 kts 110°
2026-05-07 20:57 -20.88771 55.51197 57 ft 27 kts 127°
2026-05-07 20:58 -20.88951 55.51546 60 ft 84 kts 117°
2026-05-07 20:58 -20.89274 55.52254 139 ft 119 kts 116°
2026-05-07 20:58 -20.89624 55.53062 625 ft 120 kts 116°
2026-05-07 20:58 -20.89892 55.53896 1160 ft 124 kts 93°
2026-05-07 20:59 -20.89466 55.54668 1485 ft 140 kts 49°
2026-05-07 20:59 -20.88683 55.55468 1515 ft 169 kts 47°
2026-05-07 20:59 -20.87798 55.56362 1749 ft 178 kts 48°
2026-05-07 20:59 -20.86961 55.57219 2159 ft 173 kts 49°
2026-05-07 21:00 -20.86129 55.58137 2587 ft 170 kts 51°
2026-05-07 21:00 -20.85337 55.59075 2971 ft 170 kts 53°
2026-05-07 21:00 -20.84583 55.60040 3351 ft 170 kts 55°
2026-05-07 21:00 -20.84020 55.60782 3589 ft 173 kts 54°
2026-05-07 21:01 -20.83915 55.60922 3640 ft 172 kts 55°
2026-05-07 21:01 -20.83159 55.61926 3936 ft 176 kts 54°
2026-05-07 21:02 -20.82390 55.62933 4303 ft 174 kts 54°
2026-05-07 21:02 -20.81616 55.63933 4639 ft 176 kts 54°
2026-05-07 21:02 -20.80839 55.64932 4974 ft 177 kts 54°
2026-05-07 21:02 -20.80049 55.65946 5312 ft 177 kts 54°
2026-05-07 21:03 -20.79255 55.66967 5651 ft 178 kts 54°
2026-05-07 21:03 -20.78526 55.67908 5951 ft 179 kts 54°
2026-05-07 21:03 -20.77732 55.68938 6305 ft 179 kts 54°
2026-05-07 21:03 -20.76936 55.69965 6621 ft 180 kts 54°
2026-05-07 21:04 -20.76139 55.71001 6893 ft 182 kts 54°
2026-05-07 21:04 -20.75386 55.71981 7177 ft 182 kts 54°
2026-05-07 21:04 -20.74580 55.73037 7457 ft 184 kts 54°
2026-05-07 21:04 -20.73781 55.74105 7759 ft 184 kts 54°
2026-05-07 21:05 -20.73016 55.75099 7983 ft 186 kts 53°
2026-05-07 21:05 -20.72195 55.76169 8268 ft 187 kts 53°
2026-05-07 21:05 -20.71367 55.77253 8543 ft 188 kts 53°
2026-05-07 21:05 -20.70530 55.78331 8792 ft 190 kts 53°
2026-05-07 21:06 -20.69750 55.79343 9034 ft 190 kts 53°
2026-05-07 21:06 -20.68912 55.80439 9290 ft 191 kts 53°
2026-05-07 21:06 -20.68060 55.81539 9538 ft 192 kts 52°
2026-05-07 21:06 -20.67256 55.82580 9758 ft 194 kts 52°
2026-05-07 21:07 -20.66390 55.83690 9996 ft 195 kts 52°
2026-05-07 21:07 -20.65512 55.84802 10208 ft 196 kts 52°
2026-05-07 21:07 -20.64635 55.85920 10433 ft 196 kts 53°
2026-05-07 21:07 -20.63770 55.87048 10643 ft 196 kts 53°
2026-05-07 21:08 -20.62896 55.88174 10870 ft 197 kts 52°
2026-05-07 21:08 -20.62009 55.89279 11062 ft 198 kts 51°
2026-05-07 21:08 -20.61178 55.90268 11257 ft 198 kts 50°
2026-05-07 21:08 -20.60229 55.91363 11466 ft 199 kts 50°
2026-05-07 21:09 -20.59277 55.92435 11664 ft 200 kts 49°
2026-05-07 21:09 -20.58324 55.93498 11869 ft 201 kts 49°
2026-05-07 21:09 -20.57345 55.94594 12080 ft 201 kts 50°
2026-05-07 21:09 -20.56398 55.95660 12269 ft 202 kts 50°
2026-05-07 21:10 -20.55430 55.96753 12476 ft 202 kts 50°
2026-05-07 21:10 -20.54548 55.97754 12639 ft 203 kts 50°
2026-05-07 21:10 -20.53579 55.98857 12832 ft 204 kts 50°
2026-05-07 21:10 -20.52597 55.99975 12968 ft 207 kts 50°
2026-05-07 21:11 -20.51606 56.01108 13035 ft 213 kts 51°
2026-05-07 21:11 -20.50580 56.02301 13060 ft 220 kts 51°
2026-05-07 21:11 -20.48440 56.04742 13080 ft 231 kts 50°
2026-05-07 21:12 -20.47454 56.05865 13087 ft 235 kts 50°
2026-05-07 21:12 -20.46320 56.07146 13087 ft 239 kts 50°
2026-05-07 21:12 -20.45160 56.08459 13084 ft 242 kts 50°
2026-05-07 21:12 -20.44009 56.09778 13084 ft 244 kts 49°
2026-05-07 21:13 -20.42931 56.11001 13090 ft 242 kts 51°
2026-05-07 21:13 -20.42195 56.12556 13092 ft 237 kts 80°
2026-05-07 21:13 -20.42048 56.14322 13088 ft 239 kts 91°
2026-05-07 21:13 -20.42084 56.15928 13081 ft 240 kts 93°
2026-05-07 21:14 -20.42150 56.17713 13088 ft 241 kts 92°
2026-05-07 21:14 -20.42207 56.19507 13087 ft 241 kts 92°
2026-05-07 21:14 -20.42262 56.21294 13087 ft 242 kts 92°
2026-05-07 21:14 -20.42283 56.22959 13087 ft 242 kts 91°
2026-05-07 21:15 -20.42273 56.24734 13079 ft 242 kts 90°
2026-05-07 21:15 -20.42263 56.26546 13087 ft 242 kts 90°
2026-05-07 21:15 -20.42258 56.28224 13089 ft 243 kts 91°
2026-05-07 21:15 -20.42259 56.30021 13091 ft 243 kts 91°
2026-05-07 21:16 -20.42258 56.31823 13080 ft 243 kts 91°
2026-05-07 21:16 -20.42260 56.33623 13089 ft 243 kts 91°
2026-05-07 21:16 -20.42267 56.35279 13088 ft 243 kts 91°
2026-05-07 21:16 -20.42274 56.37078 13087 ft 243 kts 91°
2026-05-07 21:17 -20.42285 56.38882 13086 ft 243 kts 91°
2026-05-07 21:17 -20.42292 56.40554 13085 ft 243 kts 91°
2026-05-07 21:17 -20.42299 56.42356 13089 ft 243 kts 91°
2026-05-07 21:17 -20.42308 56.44160 13088 ft 243 kts 91°
2026-05-07 21:18 -20.42315 56.45957 13089 ft 243 kts 91°
2026-05-07 21:18 -20.42323 56.47628 13088 ft 243 kts 91°
2026-05-07 21:18 -20.42330 56.49450 13083 ft 243 kts 91°
2026-05-07 21:18 -20.42336 56.51248 13080 ft 243 kts 91°
2026-05-07 21:19 -20.42343 56.52942 13087 ft 244 kts 91°
2026-05-07 21:19 -20.42350 56.54749 13087 ft 244 kts 91°
2026-05-07 21:19 -20.42357 56.56554 13089 ft 244 kts 91°
2026-05-07 21:19 -20.42363 56.58360 13087 ft 244 kts 91°
2026-05-07 21:20 -20.42369 56.60074 13078 ft 244 kts 91°
2026-05-07 21:20 -20.42375 56.61878 13085 ft 244 kts 91°
2026-05-07 21:20 -20.42383 56.63684 13086 ft 244 kts 91°
2026-05-07 21:20 -20.42387 56.65324 13083 ft 244 kts 91°
2026-05-07 21:21 -20.42392 56.67177 13083 ft 244 kts 91°
2026-05-07 21:21 -20.42399 56.68969 13088 ft 244 kts 91°
2026-05-07 21:21 -20.42403 56.70775 13083 ft 244 kts 91°
2026-05-07 21:21 -20.42407 56.72581 13085 ft 244 kts 91°
2026-05-07 21:22 -20.42413 56.74401 13091 ft 244 kts 91°
2026-05-07 21:22 -20.42419 56.76211 13087 ft 244 kts 91°
2026-05-07 21:22 -20.42421 56.77898 13085 ft 244 kts 91°
2026-05-07 21:22 -20.42426 56.79702 13087 ft 244 kts 91°
2026-05-07 21:23 -20.42431 56.81513 13088 ft 244 kts 91°
2026-05-07 21:23 -20.42435 56.83326 13086 ft 244 kts 91°
2026-05-07 21:23 -20.42437 56.85007 13084 ft 244 kts 91°
2026-05-07 21:23 -20.42443 56.86825 12980 ft 249 kts 91°
2026-05-07 21:24 -20.42447 56.88674 12735 ft 257 kts 91°
2026-05-07 21:24 -20.42450 56.90488 12453 ft 265 kts 91°
2026-05-07 21:24 -20.42453 56.92509 12087 ft 273 kts 91°
2026-05-07 21:24 -20.42456 56.94532 11760 ft 278 kts 91°
2026-05-07 21:25 -20.42459 56.96602 11469 ft 280 kts 91°
2026-05-07 21:25 -20.42459 56.98532 11283 ft 279 kts 90°
2026-05-07 21:25 -20.42458 57.00584 11178 ft 274 kts 90°
2026-05-07 21:25 -20.42464 57.02600 11130 ft 269 kts 90°
2026-05-07 21:26 -20.42468 57.04476 11107 ft 265 kts 90°
2026-05-07 21:26 -20.42471 57.06436 10955 ft 267 kts 90°
2026-05-07 21:26 -20.42473 57.08392 10682 ft 257 kts 90°
2026-05-07 21:26 -20.42484 57.10244 10430 ft 245 kts 91°
2026-05-07 21:27 -20.42496 57.11973 10194 ft 242 kts 91°
2026-05-07 21:27 -20.42507 57.13767 9939 ft 239 kts 90°
2026-05-07 21:27 -20.42510 57.15536 9668 ft 240 kts 90°
2026-05-07 21:27 -20.42510 57.17227 9417 ft 242 kts 90°
2026-05-07 21:28 -20.42509 57.19019 9142 ft 243 kts 90°
2026-05-07 21:28 -20.42507 57.20821 8871 ft 244 kts 90°
2026-05-07 21:28 -20.42507 57.22641 8602 ft 245 kts 90°
2026-05-07 21:28 -20.42507 57.24365 8351 ft 245 kts 90°
2026-05-07 21:29 -20.42396 57.26166 8085 ft 243 kts 75°
2026-05-07 21:29 -20.41618 57.27762 7830 ft 243 kts 59°
2026-05-07 21:29 -20.40751 57.29133 7584 ft 234 kts 57°
2026-05-07 21:29 -20.39862 57.30529 7331 ft 220 kts 58°
2026-05-07 21:30 -20.39037 57.31854 7105 ft 209 kts 60°
2026-05-07 21:30 -20.38287 57.33143 6880 ft 203 kts 60°
2026-05-07 21:30 -20.37595 57.34329 6680 ft 202 kts 60°
2026-05-07 21:30 -20.36856 57.35598 6469 ft 202 kts 60°
2026-05-07 21:31 -20.36135 57.36879 6235 ft 201 kts 62°
2026-05-07 21:31 -20.35469 57.38067 6034 ft 200 kts 62°
2026-05-07 21:31 -20.34912 57.39407 5834 ft 196 kts 72°
2026-05-07 21:31 -20.34489 57.40775 5586 ft 193 kts 74°
2026-05-07 21:32 -20.34090 57.42128 5400 ft 190 kts 73°
2026-05-07 21:32 -20.33699 57.43379 5220 ft 187 kts 73°
2026-05-07 21:32 -20.33265 57.44678 5047 ft 186 kts 71°
2026-05-07 21:32 -20.32831 57.45953 4825 ft 179 kts 71°
2026-05-07 21:33 -20.32735 57.47151 4643 ft 171 kts 105°
2026-05-07 21:33 -20.33208 57.48298 4441 ft 169 kts 116°
2026-05-07 21:33 -20.33772 57.49409 4252 ft 172 kts 118°
2026-05-07 21:33 -20.34378 57.50506 4026 ft 171 kts 120°
2026-05-07 21:34 -20.34970 57.51511 3740 ft 170 kts 119°
2026-05-07 21:34 -20.35544 57.52603 3441 ft 168 kts 114°
2026-05-07 21:34 -20.36037 57.53691 3349 ft 155 kts 112°
2026-05-07 21:34 -20.36452 57.54646 3161 ft 150 kts 112°
2026-05-07 21:35 -20.36894 57.55647 2943 ft 149 kts 115°
2026-05-07 21:35 -20.37379 57.56619 2711 ft 149 kts 116°
2026-05-07 21:35 -20.37706 57.57262 2579 ft 149 kts 116°
2026-05-07 21:35 -20.38177 57.58251 2353 ft 150 kts 114°
2026-05-07 21:36 -20.38596 57.59154 2115 ft 139 kts 116°
2026-05-07 21:36 -20.39016 57.60002 1930 ft 120 kts 116°
2026-05-07 21:36 -20.39371 57.60742 1756 ft 105 kts 115°
2026-05-07 21:36 -20.39667 57.61399 1620 ft 107 kts 116°
2026-05-07 21:37 -20.40006 57.62107 1460 ft 106 kts 117°
2026-05-07 21:37 -20.40347 57.62782 1276 ft 104 kts 117°
2026-05-07 21:37 -20.40684 57.63470 1123 ft 104 kts 115°
2026-05-07 21:37 -20.41004 57.64104 937 ft 106 kts 115°
2026-05-07 21:38 -20.41354 57.64839 818 ft 114 kts 115°
2026-05-07 21:38 -20.41694 57.65557 668 ft 107 kts 114°
2026-05-07 21:38 -20.42006 57.66212 451 ft 105 kts 114°
2026-05-07 21:38 -20.42341 57.66931 310 ft 111 kts 114°
2026-05-07 21:39 -20.42684 57.67648 205 ft 104 kts 114°
2026-05-07 21:39 -20.42921 57.68156 179 ft 31 kts 117°
2026-05-07 21:39 -20.43017 57.68348 177 ft 31 kts 117°
2026-05-07 21:39 -20.43099 57.68469 176 ft 14 kts 164°
2026-05-07 21:40 -20.43155 57.68450 176 ft 2 kts 208°
2026-05-07 21:40 -20.43175 57.68439 176 ft 0 kts 208°
2026-05-07 21:41 -20.43194 57.68428 176 ft 9 kts 208°
2026-05-07 21:41 -20.43218 57.68352 178 ft 16 kts 294°
2026-05-07 21:41 -20.43160 57.68230 182 ft 19 kts 298°
2026-05-07 21:42 -20.43102 57.68116 183 ft 20 kts 297°
2026-05-07 21:42 -20.43038 57.67983 183 ft 20 kts 298°
2026-05-07 21:42 -20.42975 57.67851 183 ft 20 kts 298°
2026-05-07 21:42 -20.42909 57.67718 183 ft 20 kts 299°
2026-05-07 21:43 -20.42895 57.67663 183 ft 8 kts 257°
2026-05-07 21:43 -20.42868 57.67592 183 ft 12 kts 294°
2026-05-07 21:43 -20.42889 57.67502 183 ft 14 kts 241°
2026-05-07 21:43 -20.42924 57.67484 183 ft 7 kts 154°
2026-05-07 21:44 -20.42969 57.67512 183 ft 0 kts 150°